Location: Augsburg
(48.3836°N, 10.8929°E)
Time: 13:12:57
(UTC+02:00)

ISS - Pass Details

Date: 10 February 2018
Orbit: 403 x 408 km, 51.6° (Epoch: 22 September)

Event Time Altitude Azimuth Distance (km) Brightness Sun altitude
Rises 18:40:02 0° 290° (WNW) 2,323 1.2 -12.1°
Reaches altitude 10° 18:42:11 10° 283° (WNW) 1,461 0.2 -12.5°
Maximum altitude 18:45:16 39° 213° (SSW) 618 -2.6 -13.0°
Drops below altitude 10° 18:48:21 10° 142° (SE) 1,461 -1.3 -13.5°
Enters shadow 18:48:26 10° 142° (SE) 1,490 -1.3 -13.5°
